Weather History for Vancouver, WA

Change the Weather History Date:

Tuesday, January 1, 2013

  Actual Average Record
Temperature  
Mean Temperature 31 °F 40 °F  
Max Temperature 39 °F 46 °F 57 °F (1939)
Min Temperature 23 °F 34 °F 11 °F (1924)
Degree Days  
Heating Degree Days 34    
Month to date heating degree days 34  
Since 1 July heating degree days 1582  
Cooling Degree Days 0    
Month to date cooling degree days 0  
Year to date cooling degree days 0  
Moisture  
Dew Point 26 °F    
Average Humidity 77    
Maximum Humidity 100    
Minimum Humidity 54    
Precipitation  
Precipitation 0.00 in 0.21 in 2.46 in (2009)
Month to date precipitation 0.00 0.21  
Year to date precipitation 0.00 0.21  
Snow  
Snow 0.00 in - - ()
Month to date snowfall 0.0  
Snow Depth 0.00 in    
Sea Level Pressure  
Sea Level Pressure 30.45 in    
Wind  
Wind Speed 1 mph (WNW)    
Max Wind Speed 8 mph    
Max Gust Speed 12 mph    
Visibility 3 miles    
Events Fog    
T = Trace of Precipitation, MM = Missing Value Source: NWS Daily Summary

Daily Weather History Graph

Daily Weather History Graph

Search for Another Location

Airport:

Trip Planner

Search our weather history database for the weather conditions in past years. The results will help you decide how hot, cold, wet, or windy it might be!

Date:

Astronomy

Jan. 01, 2013 Rise Set
Actual Time 7:51 AM PST 4:37 PM PST
Civil Twilight 7:17 AM PST 5:11 PM PST
Nautical Twilight 6:39 AM PST 5:49 PM PST
Astronomical Twilight 6:03 AM PST 6:25 PM PST
Moon 9:29 PM PST (1/1) 9:52 AM PST (1/1)
Length of Visible Light 9h 54m
Length of Day
8h 46m
Waning Gibbous, 82% of the Moon is Illuminated
Jan 1
Waning Gibbous
Jan 4
Last Quarter
Jan 11
New
Jan 18
First Quarter
Jan 26
Full

Hourly Weather History & Observations

Time (PST) Temp. Windchill Dew Point Humidity Pressure Visibility Wind Dir Wind Speed Gust Speed Precip Events Conditions
12:07 AM 30.2 °F - 30.2 °F 100% 30.45 in 2.0 mi Calm Calm - N/A   Overcast
12:16 AM 30.2 °F - 30.2 °F 100% 30.45 in 1.2 mi Calm Calm - N/A   Overcast
12:28 AM 30.2 °F - 28.4 °F 93% 30.45 in 1.5 mi Calm Calm - N/A   Overcast
12:37 AM 30.2 °F - 28.4 °F 93% 30.45 in 1.0 mi Calm Calm - N/A   Overcast
12:44 AM 30.2 °F - 28.4 °F 93% 30.45 in 0.5 mi Calm Calm - N/A Fog Light Freezing Fog
12:53 AM 30.0 °F - 28.9 °F 96% 30.45 in 0.5 mi Calm Calm - N/A Fog Light Freezing Fog
1:01 AM 30.2 °F - 28.4 °F 93% 30.45 in 0.2 mi Calm Calm - N/A Fog Light Freezing Fog
1:08 AM 30.2 °F - 28.4 °F 93% 30.45 in 0.8 mi Calm Calm - N/A   Overcast
1:15 AM 30.2 °F - 28.4 °F 93% 30.46 in 1.2 mi Calm Calm - N/A   Mostly Cloudy
1:24 AM 30.2 °F - 28.4 °F 93% 30.46 in 2.0 mi Calm Calm - N/A   Mostly Cloudy
1:34 AM 28.4 °F - 26.6 °F 93% 30.46 in 2.0 mi Calm Calm - N/A   Scattered Clouds
1:43 AM 28.4 °F - 26.6 °F 93% 30.45 in 1.8 mi Calm Calm - N/A   Partly Cloudy
2:05 AM 28.4 °F - 24.8 °F 86% 30.46 in 1.2 mi Calm Calm - N/A   Clear
2:15 AM 26.6 °F - 24.8 °F 93% 30.46 in 0.8 mi Calm Calm - N/A   Clear
2:24 AM 26.6 °F - 24.8 °F 93% 30.46 in 1.0 mi Calm Calm - N/A   Clear
2:35 AM 26.6 °F - 24.8 °F 93% 30.46 in 2.0 mi Calm Calm - N/A   Clear
2:44 AM 28.4 °F - 26.6 °F 93% 30.47 in 5.0 mi Calm Calm - N/A   Clear
2:53 AM 26.1 °F - 24.1 °F 92% 30.47 in 4.0 mi Calm Calm - N/A   Partly Cloudy
3:10 AM 28.4 °F - 26.6 °F 93% 30.47 in 3.0 mi Calm Calm - N/A   Mostly Cloudy
3:20 AM 28.4 °F - 26.6 °F 93% 30.47 in 2.5 mi Calm Calm - N/A   Overcast
3:48 AM 28.4 °F - 26.6 °F 93% 30.46 in 3.0 mi Calm Calm - N/A   Scattered Clouds
3:53 AM 28.9 °F - 27.0 °F 92% 30.46 in 3.0 mi Calm Calm - N/A   Partly Cloudy
4:29 AM 24.8 °F - 21.2 °F 86% 30.44 in 1.8 mi Calm Calm - N/A   Clear
4:40 AM 24.8 °F - 24.8 °F 100% 30.44 in 3.0 mi Calm Calm - N/A   Clear
4:53 AM 26.1 °F - 21.9 °F 84% 30.43 in 3.0 mi Calm Calm - N/A   Clear
5:53 AM 26.1 °F - 24.1 °F 92% 30.45 in 4.0 mi Calm Calm - N/A   Partly Cloudy
5:59 AM 26.6 °F - 24.8 °F 93% 30.45 in 2.5 mi Calm Calm - N/A   Mostly Cloudy
6:10 AM 26.6 °F - 24.8 °F 93% 30.45 in 1.8 mi Calm Calm - N/A   Mostly Cloudy
6:34 AM 26.6 °F - 24.8 °F 93% 30.46 in 3.0 mi Calm Calm - N/A   Overcast
6:53 AM 27.0 °F - 25.0 °F 92% 30.46 in 4.0 mi Calm Calm - N/A   Overcast
7:25 AM 26.6 °F 22.6 °F 24.8 °F 93% 30.46 in 2.0 mi WNW 3.5 mph - N/A   Overcast
7:34 AM 26.6 °F - 24.8 °F 93% 30.46 in 1.2 mi Calm Calm - N/A   Overcast
7:49 AM 26.6 °F - 24.8 °F 93% 30.47 in 0.8 mi Calm Calm - N/A   Overcast
7:53 AM 27.0 °F - 25.0 °F 92% 30.47 in 0.8 mi Calm Calm - N/A   Overcast
8:01 AM 26.6 °F - 24.8 °F 93% 30.47 in 1.5 mi Calm Calm - N/A   Overcast
8:13 AM 26.6 °F - 24.8 °F 93% 30.47 in 0.8 mi Calm Calm - N/A   Overcast
8:40 AM 26.6 °F - 24.8 °F 93% 30.47 in 1.0 mi Calm Calm - N/A   Overcast
8:53 AM 27.0 °F - 25.0 °F 92% 30.48 in 0.8 mi Calm Calm - N/A   Overcast
9:15 AM 28.4 °F 23.3 °F 26.6 °F 93% 30.48 in 0.2 mi NNW 4.6 mph - N/A Fog Light Freezing Fog
9:29 AM 28.4 °F 24.6 °F 26.6 °F 93% 30.48 in 0.5 mi NW 3.5 mph - N/A Fog Light Freezing Fog
9:53 AM 28.0 °F - 27.0 °F 96% 30.48 in 0.8 mi Calm Calm - N/A   Overcast
10:05 AM 28.4 °F - 26.6 °F 93% 30.47 in 1.5 mi Calm Calm - N/A   Overcast
10:10 AM 28.4 °F - 26.6 °F 93% 30.48 in 3.0 mi Calm Calm - N/A   Overcast
10:42 AM 28.4 °F 23.3 °F 26.6 °F 93% 30.47 in 1.8 mi NW 4.6 mph - N/A   Overcast
10:53 AM 28.9 °F 25.2 °F 28.0 °F 96% 30.48 in 4.0 mi NW 3.5 mph - N/A   Overcast
11:18 AM 30.2 °F 26.7 °F 28.4 °F 93% 30.47 in 8.0 mi WNW 3.5 mph - N/A   Scattered Clouds
11:53 AM 32.0 °F 28.7 °F 30.0 °F 92% 30.45 in 10.0 mi SW 3.5 mph - N/A   Clear
12:53 PM 37.0 °F 33.3 °F 28.0 °F 70% 30.42 in 10.0 mi WNW 4.6 mph - N/A   Clear
2:53 PM 39.0 °F - 25.0 °F 57% 30.41 in 10.0 mi Calm Calm - N/A   Clear
3:53 PM 37.9 °F 32.7 °F 25.0 °F 60% 30.40 in 10.0 mi SE 6.9 mph - N/A   Clear
4:53 PM 36.0 °F 30.3 °F 25.0 °F 64% 30.40 in 10.0 mi ESE 6.9 mph - N/A   Clear
5:53 PM 30.9 °F - 25.0 °F 79% 30.41 in 10.0 mi Calm Calm - N/A   Clear
6:53 PM 30.9 °F - 26.1 °F 82% 30.40 in 10.0 mi Calm Calm - N/A   Clear
7:53 PM 30.0 °F - 26.1 °F 85% 30.41 in 10.0 mi Calm Calm - N/A   Clear
8:53 PM 27.0 °F - 24.1 °F 89% 30.40 in 7.0 mi Calm Calm - N/A   Clear
9:53 PM 27.0 °F - 23.0 °F 85% 30.39 in 8.0 mi Calm Calm - N/A   Clear
10:53 PM 25.0 °F - 23.0 °F 92% 30.39 in 6.0 mi Calm Calm - N/A   Clear
11:53 PM 24.1 °F - 21.0 °F 88% 30.38 in 5.0 mi Calm Calm - N/A   Clear